Wind_Speed
73 75 75 76 78 80 81 83 85 87 89 90 91 93 94 96 99 100 101 102 104 105 106 107 108 108 108 109 109 109 110 113 114 114 114 113 113 113 113 114 114 114 114 113 112 113 115 116 117 116 114 112 110 109 109 108 107 105 104 104 104 105 105
71 72 73 73 74 76 78 80 81 83 84 85 86 88 90 92 95 96 98 100 101 102 103 104 106 106 107 108 108 108 109 111 113 113 113 112 112 112 112 113 114 114 115 114 112 113 115 117 117 116 114 112 110 108 107 106 106 104 103 103 103 103 103
69 70 70 71 72 74 75 77 78 79 80 81 82 84 86 89 91 93 94 96 97 99 100 101 102 103 103 104 106 106 107 108 110 111 111 111 111 111 111 111 112 114 114 113 113 114 115 117 117 116 114 112 109 107 105 105 104 103 103 102 101 101 101
68 68 68 69 70 71 72 73 74 75 76 76 78 80 82 85 87 89 90 91 93 95 96 97 98 99 99 100 101 102 103 104 106 108 108 109 110 109 109 110 110 111 112 112 113 114 115 116 117 115 113 111 108 106 105 105 104 103 102 102 101 100 101
65 66 66 67 67 68 69 70 71 72 72 73 74 76 78 80 82 84 85 87 88 90 92 93 94 96 96 96 96 97 98 99 102 104 104 105 106 106 105 106 106 107 108 110 112 114 114 115 115 114 113 111 109 107 106 105 104 104 103 102 101 101 101
62 63 64 64 65 66 66 67 68 68 69 70 71 72 74 75 77 79 80 81 83 85 87 89 90 91 92 92 91 92 94 95 97 99 100 101 102 102 101 100 98 99 102 105 109 112 112 112 113 112 112 111 109 108 106 104 104 103 102 102 101 101 102
58 59 60 61 62 63 63 64 65 66 67 67 68 68 69 70 72 73 74 75 77 79 81 82 83 85 86 86 86 87 90 92 93 95 96 97 98 98 97 94 90 90 93 97 102 106 107 107 108 109 109 109 108 106 104 102 102 100 99 99 100 101 102
54 55 57 58 59 59 60 61 62 63 64 65 65 65 65 66 67 68 69 70 73 75 76 77 77 78 79 79 81 84 86 89 91 93 94 94 94 94 92 89 87 86 88 90 93 96 97 97 99 102 103 104 104 101 99 98 97 96 96 97 98 100 101
49 51 52 53 54 55 57 58 59 61 61 62 62 62 63 64 65 65 66 67 69 71 72 72 73 73 74 74 77 81 83 86 89 90 90 91 91 89 86 85 85 85 85 86 86 86 87 88 91 94 97 99 98 96 95 93 92 92 94 96 97 99 99
46 47 48 48 50 51 53 54 56 57 58 59 59 60 61 62 63 63 64 65 66 68 69 69 69 70 71 72 74 76 79 83 86 87 87 87 86 83 81 81 82 82 82 81 80 79 80 82 85 89 92 94 93 92 91 89 88 89 92 94 96 96 96
44 44 45 45 47 48 49 51 53 55 55 56 56 57 58 59 60 61 62 63 64 65 66 66 67 68 68 69 70 72 75 79 82 83 83 82 81 79 77 77 79 80 79 77 77 77 78 79 82 85 87 87 87 87 87 86 86 88 91 92 93 93 93
42 42 42 44 45 46 47 48 51 52 52 52 53 54 55 55 57 58 59 60 62 62 63 63 64 65 66 67 69 70 72 75 77 78 77 77 76 75 74 74 75 76 75 74 75 76 76 77 79 81 81 81 82 83 84 84 85 87 88 90 91 91 91
39 40 41 41 42 42 44 45 47 48 48 49 50 51 51 52 53 55 57 59 59 59 60 61 62 63 65 66 67 68 69 71 72 72 72 72 72 72 71 70 72 73 73 72 73 75 75 76 77 77 77 77 78 80 81 82 83 84 85 87 88 89 90
38 38 39 38 38 39 40 42 43 43 43 44 45 46 47 48 50 53 55 57 58 57 58 59 60 61 63 65 65 65 66 67 67 68 68 69 69 69 68 68 70 71 71 71 72 73 73 73 74 73 72 73 75 77 78 78 79 79 81 83 85 86 86
37 37 36 36 36 37 38 40 40 39 38 39 40 42 43 44 47 50 53 55 55 55 56 58 58 58 61 63 62 61 63 64 64 64 65 66 66 66 65 66 68 69 69 70 70 70 70 69 69 68 69 71 72 72 73 74 75 76 77 79 81 82 82
35 35 34 33 34 35 37 37 37 36 36 37 38 39 40 41 44 48 52 52 52 53 55 56 56 57 58 60 59 58 60 61 61 62 63 63 63 63 63 65 66 66 66 67 67 67 66 66 66 66 67 68 68 67 68 70 72 73 75 77 78 79 80
33 32 32 31 31 33 34 34 33 34 35 37 37 38 39 41 43 46 48 48 48 50 53 54 54 55 57 58 57 56 58 60 59 59 60 60 60 61 62 63 63 63 64 65 65 64 63 63 64 65 64 63 64 64 65 68 70 72 74 75 76 76 76
31 30 30 29 30 31 31 31 31 33 35 36 37 38 39 41 42 43 45 45 46 48 50 51 51 52 54 55 54 55 57 58 57 56 57 58 59 61 61 62 62 62 62 62 61 61 61 61 62 61 60 60 61 61 64 67 70 72 73 73 74 73 72
29 29 29 29 30 30 29 30 31 32 34 35 36 37 38 39 40 41 42 43 45 46 47 48 48 49 51 52 52 53 55 55 54 54 55 57 59 60 61 60 59 58 58 58 58 58 58 58 58 57 57 58 59 61 64 67 69 71 72 71 70 69 69
29 29 29 29 30 29 28 29 29 30 32 33 34 35 35 36 37 38 40 41 43 45 46 47 47 47 48 49 49 50 51 52 53 53 54 57 58 59 58 56 54 54 54 55 55 55 55 55 54 54 55 56 58 61 64 67 69 70 69 67 67 66 66
28 28 29 29 29 28 27 27 27 28 29 29 30 30 31 33 34 36 38 40 42 44 46 47 47 47 47 47 48 49 50 51 52 52 53 55 55 53 52 50 50 51 51 51 51 51 51 52 52 54 55 57 59 62 65 67 67 66 65 64 64 64 63
26 27 27 27 27 26 26 26 26 26 26 26 26 27 28 29 31 33 35 37 40 42 44 45 46 47 47 48 48 49 50 50 50 49 50 50 49 48 47 47 47 47 47 48 49 49 49 50 52 54 56 58 60 62 64 63 62 62 62 61 61 61 61
23 24 24 24 24 24 24 24 25 25 24 24 24 24 25 27 29 30 32 35 37 39 41 43 44 45 46 46 47 47 47 46 46 45 45 45 44 44 44 43 43 44 46 47 47 48 49 51 53 55 57 58 59 59 59 58 58 58 58 58 58 58 59
19 20 20 21 21 22 22 23 23 23 23 23 23 24 24 26 27 29 30 32 33 35 37 38 40 41 42 42 42 42 42 42 42 41 41 40 41 41 41 41 43 44 46 46 46 47 49 51 52 54 54 55 55 54 54 54 55 56 56 56 56 56 57
16 17 17 17 18 19 20 21 21 22 22 22 22 22 23 24 25 26 27 29 30 31 32 33 35 36 37 37 38 38 38 38 38 38 38 39 40 41 41 42 43 44 44 44 45 46 48 48 49 49 50 50 50 51 52 53 53 54 54 54 55 55 55
14 14 14 15 15 16 16 17 18 19 19 19 19 20 21 22 23 24 25 26 26 27 28 29 30 32 32 33 34 34 34 35 35 36 37 39 39 40 40 40 40 40 41 42 43 43 44 44 45 46 47 48 49 50 51 51 52 52 52 52 53 54 55
12 12 12 12 13 13 13 13 14 15 15 16 16 17 18 19 21 22 23 24 24 24 25 26 27 28 29 30 31 31 31 32 34 35 36 37 37 37 37 37 37 37 38 39 40 41 42 43 44 45 47 48 49 49 49 49 49 50 50 51 52 53 53
10 10 10 10 10 10 10 10 11 12 13 13 14 15 16 17 18 19 21 21 22 23 23 24 25 26 27 27 28 29 29 31 32 32 33 33 33 34 34 35 36 36 37 38 39 40 41 43 44 45 46 46 46 46 46 46 47 48 49 50 50 50 51
10 9 9 8 8 8 7 8 9 9 10 10 11 12 13 14 15 16 17 18 19 20 21 22 23 23 24 24 25 26 27 27 28 28 29 30 31 32 33 34 35 36 37 38 39 40 41 42 42 42 43 43 43 43 44 45 45 46 46 47 48 48 50
9 8 7 6 6 5 5 6 6 6 7 8 9 9 10 11 11 12 13 14 15 17 18 18 19 20 20 21 22 23 23 24 25 26 27 29 30 31 32 33 34 35 36 37 38 39 39 39 39 39 39 40 41 42 42 43 43 44 45 46 47 48 49
8 7 5 5 4 4 4 4 4 4 5 6 7 7 8 8 8 9 10 11 12 13 14 15 16 16 17 18 19 20 21 23 24 26 27 28 29 30 31 32 33 34 35 36 36 36 36 36 36 36 37 38 39 40 40 41 42 43 44 45 47 49 50
7 6 5 3 2 2 2 2 2 2 3 4 4 5 5 6 6 7 8 9 10 11 12 13 14 15 17 18 19 20 21 22 24 25 26 27 28 29 30 31 32 32 32 32 32 32 32 33 33 34 35 36 37 39 40 41 42 44 45 47 48 50 51
7 6 4 3 2 1 1 2 2 2 3 4 4 5 5 5 6 6 7 8 9 10 11 13 14 15 16 17 18 20 21 22 23 24 25 26 26 27 28 28 29 29 29 29 29 30 30 31 33 34 35 36 38 40 41 42 44 45 46 48 48 49 50
6 5 4 3 3 3 4 4 4 4 5 5 5 5 5 5 6 6 7 7 8 9 11 12 13 14 15 16 18 19 20 21 21 22 23 23 24 25 25 25 25 26 26 27 28 29 31 32 33 35 36 38 39 41 42 43 44 45 46 47 47 48 49
6 5 5 5 5 5 5 6 6 6 6 5 5 5 5 5 5 5 5 5 6 7 9 10 11 12 13 14 15 16 17 18 18 19 20 21 21 22 23 23 24 25 26 28 29 30 32 33 35 36 37 39 40 41 42 43 44 44 45 45 46 47 47
6 5 5 6 6 6 6 6 6 6 6 5 5 5 4 4 4 3 3 3 3 4 5 7 8 9 10 11 12 13 14 15 16 17 18 19 20 21 22 23 25 26 27 28 30 31 32 34 35 36 37 39 40 40 41 42 42 43 44 44 45 46 47
Wind_Direction
255 254 253 252 251 251 250 249 249 248 248 248 248 249 249 249 249 250 250 250 250 250 250 250 250 250 250 250 249 248 248 249 250 251 250 250 250 249 249 250 251 251 252 252 252 252 253 254 255 255 255 256 255 256 256 257 257 256 256 257 257 258 258
256 255 254 253 252 251 251 250 249 249 248 248 248 248 248 248 248 248 249 249 249 249 249 249 249 249 249 249 249 249 248 249 250 251 251 250 250 249 249 249 249 250 251 252 252 252 253 254 255 255 256 256 256 257 257 257 257 257 257 257 257 258 258
257 256 255 254 253 252 252 251 251 250 249 248 247 247 247 247 247 247 247 248 248 249 249 249 249 249 249 249 249 249 249 249 250 251 251 251 251 250 249 248 248 249 250 251 251 252 253 254 255 256 257 257 258 258 258 258 258 259 259 259 259 259 259
258 257 257 256 255 254 253 253 253 252 251 250 249 248 248 247 247 247 247 247 247 248 248 248 249 249 249 248 249 249 249 250 251 251 252 252 252 251 250 249 248 248 248 250 251 252 253 254 255 257 258 258 259 259 259 260 260 260 260 260 260 260 260
258 258 258 257 257 256 255 255 254 254 253 252 251 250 249 249 248 248 248 247 247 247 247 247 248 248 248 247 248 248 249 250 250 251 252 252 253 253 251 250 249 248 248 249 250 251 253 254 256 257 258 259 260 260 260 260 260 260 260 261 261 261 260
259 258 258 258 257 257 256 256 255 255 254 253 252 251 250 250 249 249 249 249 248 248 247 247 247 248 248 247 247 247 248 249 249 250 251 251 252 253 253 252 251 249 248 248 249 251 253 254 256 258 259 260 260 260 260 260 260 260 260 261 261 261 261
259 259 259 258 258 257 257 257 256 256 255 254 253 252 252 251 251 250 250 250 250 250 249 249 248 248 248 248 247 246 246 247 248 249 249 250 251 252 253 253 252 250 249 248 249 250 252 254 256 257 258 258 259 259 259 260 260 260 260 260 260 260 260
260 260 260 259 259 258 258 257 257 256 256 255 255 254 253 253 252 251 251 251 250 250 250 250 249 249 248 248 247 247 246 246 247 248 249 250 250 250 251 252 252 251 250 249 249 250 251 252 253 255 256 256 256 257 258 258 259 259 260 260 259 259 258
258 258 258 259 259 260 259 258 258 257 256 255 255 255 254 253 252 251 250 250 250 250 249 249 249 248 248 247 246 246 246 247 247 248 248 249 250 250 250 250 251 251 250 250 249 249 250 250 250 252 253 254 255 256 257 257 258 258 258 258 258 258 257
260 260 259 258 258 258 258 257 257 256 256 255 254 253 252 252 251 250 249 249 249 249 249 248 248 248 247 246 245 245 245 246 247 248 248 249 250 251 250 249 250 250 251 251 250 250 249 249 250 250 251 253 254 255 256 257 257 257 257 257 257 257 257
263 263 262 261 260 259 258 257 256 255 254 253 252 252 251 251 250 250 249 248 248 248 248 248 248 248 247 246 245 244 244 244 246 247 248 249 250 250 250 249 249 250 251 251 251 250 250 250 250 250 251 252 253 254 255 255 255 255 256 257 257 257 257
263 262 261 260 259 258 258 257 257 256 255 253 252 251 250 250 250 249 249 248 247 247 247 247 246 246 246 245 244 244 243 243 245 246 248 249 250 250 249 249 249 250 250 251 251 251 250 250 250 251 251 252 252 253 253 253 253 254 255 256 257 258 258
266 264 262 260 258 257 256 255 254 255 255 254 253 251 249 248 248 248 248 247 246 245 245 245 244 244 245 244 243 243 243 244 245 246 247 248 249 249 249 248 248 249 250 249 250 250 250 250 250 250 250 251 252 253 253 253 253 253 254 255 256 258 258
268 266 265 264 262 261 259 257 254 253 251 251 251 250 249 247 246 245 245 245 245 244 244 243 242 242 243 243 243 243 243 244 244 245 245 246 246 247 247 247 247 248 248 248 248 248 249 249 250 250 251 251 252 253 253 253 253 254 254 255 256 257 258
269 268 267 266 265 263 262 260 257 254 252 249 248 247 245 244 244 244 243 242 242 242 242 242 242 241 242 243 243 242 243 244 244 244 244 245 245 246 246 246 246 246 247 247 248 248 249 250 251 251 251 251 252 253 254 254 255 255 255 255 256 257 258
271 270 268 265 263 262 260 258 257 255 253 250 246 244 243 241 241 242 242 242 240 240 240 241 241 241 241 243 243 242 243 243 243 243 243 244 245 245 245 246 246 246 247 247 248 248 249 250 251 251 251 252 252 253 254 255 255 255 255 255 256 257 258
273 271 269 265 262 259 258 256 254 253 252 249 246 242 240 238 238 239 242 242 241 240 239 239 240 240 241 242 242 242 242 242 242 242 243 244 244 244 244 245 245 246 246 247 247 248 249 250 251 251 252 253 253 254 254 254 254 255 255 256 257 258 259
273 272 269 267 263 259 258 256 253 250 249 247 245 242 240 238 238 239 241 242 242 242 241 240 239 240 242 243 242 241 241 242 242 242 243 243 243 244 244 244 245 245 246 247 248 249 250 250 251 252 252 253 253 253 253 253 254 254 255 256 258 259 261
274 272 270 268 265 261 259 256 253 249 247 246 244 243 240 239 238 238 239 241 242 242 243 243 242 241 242 243 243 242 242 243 243 241 241 242 242 243 244 244 245 246 247 248 249 249 250 250 251 252 252 252 252 252 252 252 253 254 255 257 259 260 260
276 274 272 270 267 264 261 257 253 249 247 245 244 243 242 240 238 237 237 238 238 239 240 241 242 241 241 242 242 242 242 242 241 240 239 240 241 243 244 245 246 247 248 248 248 249 249 250 250 250 250 250 250 250 251 252 253 254 256 257 259 259 260
275 273 271 269 267 264 260 257 254 251 248 246 244 244 242 240 238 236 235 235 235 235 236 238 239 239 239 239 239 240 240 240 240 240 240 241 243 245 246 247 247 247 248 248 247 248 248 248 248 248 248 248 249 249 250 252 254 255 256 257 258 258 258
272 270 268 266 264 262 259 257 255 253 251 249 247 245 243 242 240 238 236 235 234 235 235 236 237 237 238 238 239 239 240 242 243 242 243 244 245 247 247 247 247 247 247 246 246 246 246 246 247 247 247 248 248 249 251 253 255 256 257 257 257 257 256
269 267 264 262 261 260 258 256 255 254 252 251 248 245 242 240 239 237 236 236 235 235 236 237 237 238 239 240 241 242 243 244 245 245 246 247 247 247 247 247 246 245 244 244 244 245 245 245 246 247 248 249 251 252 254 255 256 256 256 256 255 254 254
267 265 263 261 260 258 256 254 252 250 249 248 246 243 240 237 235 234 233 233 233 234 235 236 237 239 240 241 242 243 244 245 246 247 247 248 247 247 246 245 244 244 243 243 244 244 245 246 247 249 250 252 254 255 255 255 255 255 255 254 253 253 254
269 265 263 259 257 254 253 251 249 246 244 243 242 241 240 237 235 233 232 231 231 232 233 234 235 237 238 239 240 241 242 243 244 245 245 244 244 244 244 244 244 245 246 247 247 248 249 250 251 253 254 255 256 255 254 254 254 254 253 253 253 253 253
273 268 262 256 252 249 247 247 245 243 240 238 238 238 238 238 236 234 231 230 229 230 231 232 234 235 236 237 237 239 240 241 242 242 242 243 244 245 246 247 247 248 250 251 252 253 254 255 255 256 255 255 254 254 253 253 253 253 253 253 253 253 254
279 274 267 260 252 247 246 244 242 239 236 234 234 235 236 237 236 234 232 230 228 228 229 231 232 234 235 235 236 237 238 238 239 241 243 244 247 249 251 253 253 253 253 253 254 255 255 255 254 253 253 252 252 252 253 252 252 252 252 253 253 255 256
289 285 279 270 260 251 245 242 239 235 233 232 233 234 236 237 236 235 233 230 228 228 228 230 231 232 234 235 236 236 236 238 240 242 245 247 249 251 252 254 254 254 253 253 252 252 252 251 251 251 251 251 252 252 252 251 251 252 253 254 255 257 258
301 297 291 282 271 260 251 247 242 236 233 232 233 235 237 238 238 236 234 232 230 229 229 231 232 233 235 236 238 239 240 242 243 245 246 247 248 248 249 250 250 250 250 250 250 249 249 249 250 250 250 250 250 251 251 251 252 253 254 256 257 259 260
310 307 300 292 285 276 264 255 247 241 239 238 237 237 238 239 239 238 236 234 232 232 232 233 235 237 238 240 242 244 244 245 245 245 245 245 246 246 246 246 246 246 247 247 247 247 248 248 248 248 249 249 249 250 251 252 254 255 256 258 259 260 261
315 313 308 303 298 291 275 264 252 246 247 248 248 246 245 245 244 242 239 237 236 235 236 239 241 242 244 245 245 245 245 244 244 244 244 245 244 244 244 243 243 244 244 244 245 246 246 246 247 247 248 249 250 252 253 255 256 257 258 259 260 261 262
322 324 324 321 319 318 302 293 288 282 280 279 277 275 271 265 258 252 247 245 244 243 244 245 245 245 246 246 246 245 244 243 243 243 243 243 242 242 241 241 241 242 243 243 244 244 245 246 247 248 249 251 253 254 255 256 257 258 259 260 261 262 263
332 334 339 343 7 44 55 41 22 5 354 343 329 316 306 295 283 273 265 258 254 251 249 248 247 246 246 245 244 243 242 241 241 240 240 240 240 240 240 240 241 242 242 243 244 245 246 247 249 250 251 252 254 255 256 257 258 259 260 261 261 262 263
344 349 357 11 37 54 59 56 45 33 22 11 358 346 336 325 312 300 286 275 265 259 256 252 250 247 245 243 242 241 240 240 239 238 238 238 238 239 239 240 240 241 242 243 244 245 246 248 249 250 252 253 254 256 257 258 259 260 260 261 262 263 264
4 16 27 35 43 50 53 55 52 44 35 24 15 7 359 348 335 321 306 289 275 266 260 255 251 248 245 243 241 239 237 236 235 234 234 234 234 235 236 236 238 239 240 242 244 245 247 249 250 252 254 255 256 257 258 259 260 261 262 263 264 265 266
26 42 52 55 57 59 62 65 64 58 51 43 34 27 22 19 11 356 338 313 285 268 257 251 248 243 239 236 233 231 229 228 228 229 230 231 232 232 234 235 237 239 241 243 245 248 250 251 253 254 255 256 257 258 259 260 262 263 264 265 266 267 268
Height
9995 9998 10002 10006 10009 10012 10015 10018 10022 10024 10027 10031 10036 10039 10042 10044 10045 10048 10053 10056 10058 10062 10066 10068 10072 10076 10080 10083 10088 10093 10095 10096 10099 10103 10106 10111 10115 10120 10123 10126 10128 10132 10134 10139 10144 10143 10141 10141 10143 10148 10155 10160 10165 10168 10169 10171 10175 10180 10183 10186 10187 10187 10188
9982 9985 9988 9992 9995 9998 10000 10003 10006 10009 10012 10017 10021 10024 10026 10029 10030 10033 10037 10039 10043 10047 10050 10053 10056 10060 10064 10067 10071 10077 10079 10082 10085 10088 10091 10096 10100 10104 10108 10111 10113 10116 10118 10123 10129 10130 10127 10126 10129 10134 10139 10145 10150 10154 10156 10158 10161 10165 10169 10172 10173 10174 10176
9969 9972 9975 9978 9981 9983 9986 9989 9991 9994 9998 10002 10006 10009 10011 10013 10015 10019 10022 10025 10028 10032 10035 10039 10041 10044 10050 10053 10056 10061 10065 10068 10071 10073 10076 10081 10084 10087 10092 10096 10099 10101 10104 10108 10114 10116 10115 10113 10116 10120 10124 10130 10135 10139 10142 10145 10148 10152 10155 10158 10160 10162 10163
9958 9960 9963 9965 9968 9970 9973 9976 9978 9981 9985 9989 9992 9994 9997 9999 10001 10005 10009 10012 10015 10018 10021 10026 10028 10030 10035 10040 10043 10048 10052 10055 10057 10059 10062 10065 10068 10072 10076 10080 10084 10088 10091 10095 10099 10102 10103 10101 10102 10106 10110 10114 10120 10124 10127 10131 10135 10138 10141 10143 10145 10147 10148
9947 9950 9952 9954 9956 9958 9961 9963 9966 9968 9971 9975 9978 9980 9983 9986 9989 9992 9996 9999 10002 10005 10008 10011 10014 10016 10020 10026 10031 10036 10039 10042 10043 10044 10047 10050 10053 10057 10061 10065 10070 10075 10079 10082 10085 10088 10091 10090 10091 10093 10096 10099 10104 10109 10113 10118 10122 10125 10127 10128 10130 10132 10132
9938 9940 9942 9943 9945 9947 9949 9952 9954 9956 9959 9961 9964 9967 9970 9973 9976 9979 9983 9987 9989 9992 9994 9998 10002 10004 10007 10012 10019 10024 10026 10027 10028 10029 10032 10036 10039 10042 10046 10050 10057 10062 10065 10070 10073 10075 10079 10081 10080 10081 10084 10086 10089 10093 10100 10105 10108 10111 10113 10115 10116 10117 10116
9930 9931 9932 9934 9935 9937 9939 9941 9943 9945 9947 9949 9952 9955 9958 9962 9965 9968 9972 9975 9977 9979 9981 9986 9990 9993 9996 10001 10006 10009 10011 10012 10014 10016 10019 10022 10025 10028 10032 10037 10043 10047 10050 10056 10060 10063 10068 10071 10069 10068 10070 10072 10075 10081 10087 10091 10093 10096 10100 10101 10102 10101 10101
9922 9923 9923 9924 9925 9927 9929 9931 9933 9934 9936 9938 9941 9944 9948 9951 9954 9957 9960 9963 9964 9966 9969 9973 9977 9980 9984 9989 9992 9994 9996 9998 10001 10003 10005 10009 10012 10015 10020 10024 10029 10033 10036 10041 10046 10050 10055 10058 10057 10055 10055 10057 10062 10068 10074 10077 10080 10083 10085 10085 10085 10085 10085
9914 9915 9915 9916 9917 9918 9919 9920 9922 9923 9925 9928 9931 9934 9937 9939 9942 9945 9949 9951 9952 9954 9957 9961 9965 9967 9971 9975 9978 9980 9983 9986 9988 9990 9994 9997 9999 10003 10009 10013 10016 10020 10023 10027 10032 10037 10040 10043 10043 10042 10041 10043 10049 10056 10061 10064 10067 10070 10070 10068 10068 10069 10069
9905 9905 9906 9908 9909 9910 9910 9911 9912 9913 9915 9918 9921 9923 9926 9927 9930 9934 9937 9940 9941 9943 9946 9950 9953 9955 9959 9963 9965 9968 9972 9974 9976 9978 9982 9986 9988 9992 9997 10001 10004 10008 10011 10015 10018 10022 10025 10028 10030 10030 10029 10031 10037 10043 10048 10052 10055 10055 10053 10052 10052 10054 10055
9895 9896 9897 9898 9899 9900 9901 9902 9902 9903 9905 9908 9911 9913 9915 9918 9921 9923 9926 9929 9931 9933 9935 9939 9942 9944 9948 9951 9954 9957 9960 9962 9964 9967 9971 9975 9978 9982 9985 9990 9994 9997 10000 10003 10005 10008 10011 10015 10017 10017 10018 10022 10026 10030 10035 10039 10040 10039 10038 10037 10038 10040 10043
9887 9888 9889 9890 9891 9891 9892 9893 9892 9893 9896 9899 9901 9904 9907 9909 9911 9913 9916 9918 9920 9923 9925 9928 9931 9934 9937 9940 9942 9945 9949 9951 9954 9958 9962 9965 9968 9972 9975 9980 9983 9985 9988 9991 9993 9996 9999 10002 10004 10006 10009 10012 10015 10017 10021 10024 10025 10025 10026 10026 10026 10027 10029
9879 9880 9881 9882 9883 9884 9885 9885 9885 9886 9888 9890 9892 9894 9897 9900 9901 9903 9905 9906 9909 9912 9915 9917 9921 9924 9926 9928 9931 9935 9939 9942 9946 9950 9953 9955 9959 9962 9966 9970 9973 9974 9977 9980 9981 9984 9988 9991 9992 9995 9999 10002 10003 10005 10007 10009 10011 10013 10015 10015 10015 10015 10016
9871 9872 9872 9874 9875 9876 9876 9876 9877 9879 9881 9883 9884 9885 9888 9891 9892 9892 9894 9895 9898 9901 9904 9907 9910 9914 9916 9917 9921 9926 9930 9933 9937 9940 9943 9946 9949 9952 9956 9960 9962 9963 9966 9968 9970 9973 9977 9980 9983 9986 9990 9992 9992 9992 9994 9996 9998 10001 10003 10004 10004 10004 10004
9864 9865 9866 9867 9868 9868 9868 9867 9869 9871 9873 9875 9876 9877 9880 9882 9883 9883 9883 9886 9889 9892 9895 9897 9900 9904 9906 9908 9913 9918 9920 9923 9927 9931 9934 9937 9940 9944 9947 9949 9951 9953 9956 9958 9961 9964 9968 9972 9975 9977 9980 9980 9980 9981 9983 9984 9986 9988 9990 9992 9992 9993 9993
9858 9858 9859 9860 9861 9861 9860 9861 9862 9864 9866 9867 9868 9870 9872 9874 9875 9874 9874 9877 9882 9884 9886 9889 9892 9895 9898 9900 9905 9909 9911 9914 9918 9922 9925 9929 9932 9935 9937 9939 9941 9944 9947 9950 9953 9957 9961 9964 9965 9966 9968 9969 9970 9971 9973 9973 9974 9976 9978 9980 9981 9982 9983
9851 9852 9852 9853 9854 9854 9854 9855 9857 9858 9858 9859 9861 9863 9865 9866 9867 9867 9868 9872 9876 9877 9878 9882 9885 9888 9890 9893 9897 9900 9902 9906 9910 9914 9918 9920 9923 9925 9926 9929 9932 9935 9939 9942 9945 9949 9953 9954 9954 9955 9958 9960 9960 9962 9962 9963 9964 9965 9967 9969 9971 9972 9974
9846 9845 9846 9846 9846 9847 9847 9849 9850 9851 9851 9852 9854 9856 9857 9859 9861 9863 9864 9867 9869 9870 9872 9876 9879 9882 9884 9886 9889 9892 9895 9899 9904 9907 9910 9912 9913 9915 9918 9921 9924 9928 9932 9935 9938 9941 9943 9943 9944 9947 9950 9951 9951 9952 9952 9953 9954 9955 9957 9960 9961 9963 9965
9840 9839 9840 9840 9840 9840 9841 9842 9844 9845 9845 9847 9848 9849 9852 9854 9856 9858 9860 9861 9863 9865 9867 9870 9873 9876 9878 9879 9882 9886 9890 9893 9897 9900 9902 9903 9905 9907 9910 9914 9918 9922 9926 9928 9931 9932 9933 9934 9936 9939 9940 9941 9942 9943 9942 9943 9945 9946 9948 9951 9953 9955 9956
9834 9834 9834 9834 9834 9834 9835 9836 9837 9839 9840 9841 9843 9845 9847 9849 9851 9853 9854 9856 9857 9859 9861 9863 9866 9869 9871 9873 9876 9880 9883 9886 9888 9891 9893 9895 9897 9900 9904 9909 9913 9917 9919 9920 9922 9923 9924 9926 9928 9929 9931 9932 9933 9933 9933 9934 9935 9937 9940 9943 9945 9946 9947
9829 9829 9829 9829 9829 9829 9830 9831 9832 9833 9834 9836 9838 9840 9842 9844 9845 9847 9848 9849 9851 9852 9854 9856 9859 9862 9864 9867 9870 9872 9875 9877 9880 9884 9887 9889 9892 9896 9900 9904 9907 9908 9910 9911 9913 9915 9916 9917 9919 9920 9922 9923 9923 9924 9924 9925 9927 9930 9933 9935 9936 9937 9938
9824 9824 9824 9824 9824 9825 9825 9826 9827 9828 9830 9832 9834 9836 9837 9838 9840 9841 9842 9843 9845 9846 9848 9850 9853 9856 9858 9861 9863 9865 9868 9871 9875 9879 9881 9884 9888 9892 9894 9896 9898 9900 9901 9903 9904 9906 9907 9909 9910 9911 9912 9913 9914 9915 9917 9919 9921 9923 9925 9926 9927 9929 9930
9821 9820 9820 9820 9821 9821 9821 9822 9822 9823 9825 9827 9828 9830 9832 9833 9834 9835 9836 9838 9839 9841 9843 9845 9848 9850 9853 9855 9858 9860 9863 9866 9869 9873 9875 9879 9882 9884 9886 9888 9890 9891 9892 9894 9895 9897 9899 9900 9901 9902 9903 9904 9906 9909 9911 9913 9915 9915 9917 9918 9919 9920 9922
9817 9817 9817 9817 9817 9818 9818 9818 9819 9819 9821 9822 9823 9825 9826 9827 9828 9830 9831 9833 9835 9837 9839 9841 9843 9846 9848 9851 9853 9856 9859 9861 9864 9867 9870 9872 9874 9875 9877 9880 9881 9882 9884 9886 9888 9889 9890 9892 9893 9895 9897 9898 9900 9903 9905 9906 9907 9908 9909 9911 9911 9913 9915
9814 9814 9814 9814 9814 9814 9814 9815 9815 9816 9817 9817 9819 9820 9821 9822 9824 9825 9827 9829 9831 9833 9835 9837 9839 9841 9844 9846 9849 9851 9853 9856 9859 9861 9863 9865 9866 9868 9870 9871 9873 9875 9877 9878 9880 9882 9883 9885 9887 9888 9890 9892 9893 9895 9897 9898 9900 9900 9902 9903 9905 9906 9908
9810 9810 9810 9810 9810 9810 9810 9811 9811 9812 9813 9813 9814 9815 9816 9818 9819 9821 9823 9825 9827 9829 9831 9833 9835 9837 9840 9842 9844 9846 9848 9851 9853 9854 9856 9857 9859 9861 9862 9865 9867 9869 9870 9871 9873 9874 9876 9878 9880 9881 9883 9885 9886 9888 9890 9891 9893 9894 9895 9897 9898 9899 9900
9807 9807 9807 9807 9807 9807 9807 9807 9808 9808 9809 9809 9810 9811 9812 9814 9815 9817 9818 9820 9822 9824 9826 9828 9830 9832 9834 9837 9839 9841 9843 9845 9846 9847 9849 9851 9852 9854 9856 9858 9860 9862 9864 9865 9867 9869 9870 9872 9874 9875 9877 9878 9880 9882 9884 9886 9887 9888 9889 9890 9890 9891 9893
9804 9804 9804 9803 9803 9804 9804 9804 9804 9805 9805 9806 9807 9808 9809 9810 9811 9813 9814 9816 9818 9820 9822 9824 9825 9827 9829 9831 9834 9836 9838 9840 9841 9843 9844 9846 9848 9850 9851 9853 9855 9856 9858 9860 9862 9864 9865 9867 9868 9869 9871 9873 9875 9877 9878 9880 9881 9882 9882 9883 9884 9885 9885
9801 9801 9801 9801 9801 9801 9801 9801 9801 9802 9803 9803 9804 9805 9806 9807 9808 9810 9811 9813 9814 9816 9818 9819 9821 9823 9825 9827 9829 9831 9833 9835 9837 9839 9841 9842 9844 9846 9848 9850 9851 9853 9854 9856 9858 9859 9860 9862 9863 9865 9867 9868 9870 9872 9873 9874 9875 9875 9876 9877 9877 9878 9878
9799 9799 9799 9799 9799 9799 9799 9799 9800 9800 9801 9801 9802 9803 9804 9805 9806 9807 9809 9810 9811 9813 9814 9816 9817 9819 9821 9823 9825 9827 9829 9831 9833 9835 9837 9839 9841 9843 9845 9846 9848 9849 9851 9852 9853 9855 9856 9858 9860 9861 9863 9864 9865 9866 9867 9868 9869 9870 9870 9871 9871 9872 9872
9798 9798 9798 9798 9798 9798 9798 9798 9799 9799 9800 9800 9800 9801 9802 9803 9804 9805 9806 9808 9809 9810 9811 9813 9814 9816 9818 9820 9822 9824 9826 9828 9830 9831 9834 9836 9838 9840 9841 9843 9845 9846 9847 9849 9850 9852 9853 9855 9856 9857 9858 9859 9860 9861 9862 9862 9863 9864 9864 9865 9865 9865 9865
9797 9797 9796 9797 9797 9797 9797 9798 9798 9798 9799 9799 9800 9800 9801 9802 9803 9804 9805 9806 9807 9808 9810 9811 9812 9814 9815 9817 9819 9821 9823 9825 9827 9829 9831 9833 9835 9837 9839 9840 9842 9843 9845 9846 9848 9849 9850 9851 9852 9853 9854 9854 9855 9856 9856 9857 9858 9858 9858 9858 9858 9858 9858
9797 9796 9796 9796 9796 9796 9796 9797 9797 9798 9798 9799 9799 9800 9801 9802 9802 9803 9804 9805 9806 9807 9808 9810 9811 9812 9814 9816 9818 9820 9822 9823 9825 9827 9829 9831 9833 9835 9837 9838 9840 9841 9843 9844 9845 9846 9846 9847 9848 9849 9849 9850 9851 9851 9851 9852 9852 9852 9852 9852 9852 9851 9850
9797 9796 9796 9796 9796 9796 9796 9796 9797 9797 9798 9798 9799 9800 9800 9801 9802 9803 9804 9805 9806 9807 9808 9810 9811 9812 9814 9815 9817 9819 9821 9822 9824 9826 9828 9830 9832 9833 9835 9836 9838 9839 9839 9840 9841 9842 9843 9844 9844 9845 9845 9845 9846 9846 9846 9846 9846 9845 9845 9845 9844 9844 9843
9797 9796 9796 9796 9796 9796 9796 9796 9796 9797 9798 9798 9799 9800 9801 9802 9803 9804 9805 9806 9807 9808 9809 9810 9811 9813 9814 9815 9817 9819 9820 9822 9824 9825 9827 9829 9830 9831 9833 9834 9835 9835 9836 9837 9838 9839 9839 9840 9840 9840 9840 9840 9840 9840 9840 9840 9839 9839 9838 9838 9837 9836 9836
9798 9797 9797 9797 9797 9797 9797 9797 9797 9798 9798 9799 9800 9801 9801 9802 9803 9804 9805 9806 9807 9808 9810 9811 9812 9813 9815 9816 9817 9819 9820 9821 9823 9824 9825 9827 9828 9829 9830 9831 9832 9833 9833 9834 9834 9835 9835 9835 9835 9835 9835 9835 9834 9834 9834 9833 9833 9832 9832 9831 9830 9829 9828